When you browse on this site, cookies collect data to enhance your experience and personalize the content and advertising you see.
Visit our Privacy Policy to learn more. By continuing to use the site, you agree to this use of cookies and data.
  • Em Portugal
  • Lista de países
  • Para 7 dias
  • Temperatura da água
  • Mapas de satélite
  • Mapa do tempo
  • Widgets de tempo
  • user-avatar
    Iniciar Sessão

    Previsão horária em Ghanzi

    Hoje, 17 Janeiro, Quinta-feira

    Tempo Temperatura Precipitação Vento Pressão Humidade
    00:00 +9°C° 0 mm 3 m/s 720 mmHg 47%
    01:00 +8°C° 0 mm 3 m/s 720 mmHg 53%
    02:00 +7°C° 0 mm 3 m/s 720 mmHg 56%
    03:00 +7°C° 0 mm 3 m/s 720 mmHg 59%
    04:00 +7°C° 0 mm 3 m/s 720 mmHg 63%
    05:00 +7°C° 0 mm 3 m/s 720 mmHg 64%
    06:00 +7°C° 0 mm 3 m/s 720 mmHg 65%
    07:00 +6°C° 0 mm 2 m/s 720 mmHg 66%
    08:00 +9°C° 0 mm 3 m/s 720 mmHg 56%
    09:00 +11°C° 0 mm 3 m/s 720 mmHg 46%
    10:00 +13°C° 0 mm 3 m/s 720 mmHg 36%
    11:00 +16°C° 0 mm 3 m/s 720 mmHg 31%
    12:00 +17°C° 0 mm 3 m/s 719 mmHg 27%
    13:00 +19°C° 0 mm 2 m/s 719 mmHg 22%
    14:00 +19°C° 0 mm 2 m/s 718 mmHg 21%
    15:00 +19°C° 0 mm 2 m/s 718 mmHg 19%
    16:00 +20°C° 0 mm 2 m/s 718 mmHg 18%
    17:00 +18°C° 0 mm 2 m/s 718 mmHg 21%
    18:00 +16°C° 0 mm 2 m/s 717 mmHg 24%
    19:00 +14°C° 0 mm 2 m/s 717 mmHg 27%
    20:00 +13°C° 0 mm 3 m/s 718 mmHg 28%
    21:00 +12°C° 0 mm 3 m/s 718 mmHg 29%
    22:00 +12°C° 0 mm 3 m/s 718 mmHg 30%
    23:00 +11°C° 0 mm 3 m/s 718 mmHg 31%

    Amanhã, 18 Janeiro, Sexta-feira

    Tempo Temperatura Precipitação Vento Pressão Humidade
    00:00 +11°C° 0 mm 3 m/s 718 mmHg 32%
    01:00 +10°C° 0 mm 3 m/s 718 mmHg 33%
    02:00 +10°C° 0 mm 3 m/s 718 mmHg 34%
    03:00 +9°C° 0 mm 3 m/s 717 mmHg 35%
    04:00 +9°C° 0 mm 2 m/s 717 mmHg 36%
    05:00 +9°C° 0 mm 2 m/s 718 mmHg 34%
    06:00 +9°C° 0 mm 2 m/s 718 mmHg 33%
    07:00 +9°C° 0 mm 2 m/s 718 mmHg 32%
    08:00 +12°C° 0 mm 2 m/s 719 mmHg 27%
    09:00 +14°C° 0 mm 2 m/s 719 mmHg 23%
    10:00 +16°C° 0 mm 2 m/s 719 mmHg 19%
    11:00 +18°C° 0 mm 2 m/s 719 mmHg 17%
    12:00 +20°C° 0 mm 1 m/s 718 mmHg 15%
    13:00 +22°C° 0 mm 1 m/s 717 mmHg 13%
    14:00 +22°C° 0 mm 1 m/s 717 mmHg 13%
    15:00 +23°C° 0 mm 1 m/s 717 mmHg 12%
    16:00 +23°C° 0 mm 2 m/s 717 mmHg 11%
    17:00 +20°C° 0 mm 2 m/s 717 mmHg 13%
    18:00 +18°C° 0 mm 2 m/s 717 mmHg 15%
    19:00 +16°C° 0 mm 2 m/s 717 mmHg 16%
    20:00 +16°C° 0 mm 3 m/s 717 mmHg 17%
    21:00 +14°C° 0 mm 3 m/s 718 mmHg 17%
    22:00 +14°C° 0 mm 3 m/s 718 mmHg 17%
    23:00 +13°C° 0 mm 3 m/s 718 mmHg 18%

    Depois de amanhã, 19 Janeiro, Sábado

    Tempo Temperatura Precipitação Vento Pressão Humidade
    00:00 +12°C° 0 mm 3 m/s 717 mmHg 19%
    01:00 +13°C° 0 mm 2 m/s 717 mmHg 20%
    02:00 +12°C° 0 mm 2 m/s 717 mmHg 21%
    03:00 +12°C° 0 mm 2 m/s 717 mmHg 21%
    04:00 +10°C° 0 mm 2 m/s 716 mmHg 22%
    05:00 +10°C° 0 mm 2 m/s 717 mmHg 22%
    06:00 +10°C° 0 mm 2 m/s 717 mmHg 22%
    07:00 +10°C° 0 mm 2 m/s 718 mmHg 22%
    08:00 +14°C° 0 mm 2 m/s 718 mmHg 19%
    09:00 +16°C° 0 mm 2 m/s 719 mmHg 16%
    10:00 +19°C° 0 mm 3 m/s 719 mmHg 13%
    11:00 +20°C° 0 mm 2 m/s 718 mmHg 11%
    12:00 +23°C° 0 mm 2 m/s 718 mmHg 10%
    13:00 +25°C° 0 mm 2 m/s 717 mmHg 8%
    14:00 +25°C° 0 mm 2 m/s 717 mmHg 8%
    15:00 +25°C° 0 mm 2 m/s 716 mmHg 7%
    16:00 +25°C° 0 mm 2 m/s 716 mmHg 7%
    17:00 +23°C° 0 mm 2 m/s 716 mmHg 8%
    18:00 +20°C° 0 mm 2 m/s 716 mmHg 9%
    19:00 +18°C° 0 mm 2 m/s 716 mmHg 11%
    20:00 +18°C° 0 mm 2 m/s 716 mmHg 11%
    21:00 +17°C° 0 mm 3 m/s 717 mmHg 11%
    22:00 +17°C° 0 mm 3 m/s 717 mmHg 11%
    23:00 +16°C° 0 mm 3 m/s 716 mmHg 12%

    20 Janeiro, Domingo

    Tempo Temperatura Precipitação Vento Pressão Humidade
    00:00 +16°C° 0 mm 3 m/s 716 mmHg 12%
    01:00 +14°C° 0 mm 3 m/s 716 mmHg 13%
    02:00 +14°C° 0 mm 3 m/s 716 mmHg 13%
    03:00 +14°C° 0 mm 3 m/s 716 mmHg 13%
    04:00 +13°C° 0 mm 3 m/s 715 mmHg 13%
    05:00 +13°C° 0 mm 3 m/s 716 mmHg 13%
    06:00 +13°C° 0 mm 3 m/s 716 mmHg 12%
    07:00 +13°C° 0 mm 3 m/s 717 mmHg 12%
    08:00 +17°C° 0 mm 3 m/s 717 mmHg 11%
    09:00 +19°C° 0 mm 3 m/s 717 mmHg 9%
    10:00 +21°C° 0 mm 3 m/s 718 mmHg 8%
    11:00 +24°C° 0 mm 3 m/s 717 mmHg 7%
    12:00 +25°C° 0 mm 2 m/s 717 mmHg 6%
    13:00 +27°C° 0 mm 2 m/s 716 mmHg 5%
    14:00 +27°C° 0 mm 2 m/s 716 mmHg 5%
    15:00 +27°C° 0 mm 2 m/s 716 mmHg 5%
    16:00 +27°C° 0 mm 2 m/s 715 mmHg 5%
    17:00 +26°C° 0 mm 2 m/s 715 mmHg 6%
    18:00 +24°C° 0 mm 3 m/s 716 mmHg 7%
    19:00 +21°C° 0 mm 3 m/s 716 mmHg 8%
    20:00 +20°C° 0 mm 3 m/s 716 mmHg 8%
    21:00 +19°C° 0 mm 3 m/s 716 mmHg 9%
    22:00 +19°C° 0 mm 3 m/s 716 mmHg 9%
    23:00 +18°C° 0 mm 3 m/s 716 mmHg 10%

    21 Janeiro, Segunda-feira

    Tempo Temperatura Precipitação Vento Pressão Humidade
    00:00 +17°C° 0 mm 3 m/s 716 mmHg 11%
    01:00 +16°C° 0 mm 2 m/s 716 mmHg 12%
    02:00 +16°C° 0 mm 2 m/s 716 mmHg 12%
    03:00 +15°C° 0 mm 2 m/s 715 mmHg 13%
    04:00 +15°C° 0 mm 2 m/s 715 mmHg 13%
    05:00 +15°C° 0 mm 2 m/s 716 mmHg 13%
    06:00 +15°C° 0 mm 2 m/s 716 mmHg 14%
    07:00 +15°C° 0 mm 2 m/s 716 mmHg 14%
    08:00 +18°C° 0 mm 3 m/s 717 mmHg 12%
    09:00 +20°C° 0 mm 3 m/s 717 mmHg 10%
    10:00 +24°C° 0 mm 3 m/s 717 mmHg 8%
    11:00 +25°C° 0 mm 3 m/s 717 mmHg 7%
    12:00 +27°C° 0 mm 3 m/s 716 mmHg 6%
    13:00 +29°C° 0 mm 3 m/s 716 mmHg 5%
    14:00 +29°C° 0 mm 3 m/s 715 mmHg 5%
    15:00 +29°C° 0 mm 3 m/s 715 mmHg 5%
    16:00 +29°C° 0 mm 3 m/s 715 mmHg 5%
    17:00 +27°C° 0 mm 3 m/s 715 mmHg 6%
    18:00 +25°C° 0 mm 3 m/s 715 mmHg 6%
    19:00 +22°C° 0 mm 3 m/s 715 mmHg 7%
    20:00 +22°C° 0 mm 3 m/s 715 mmHg 8%
    21:00 +21°C° 0 mm 3 m/s 715 mmHg 8%
    22:00 +20°C° 0 mm 3 m/s 715 mmHg 9%
    23:00 +19°C° 0 mm 3 m/s 715 mmHg 9%

    22 Janeiro, Terça-feira

    Tempo Temperatura Precipitação Vento Pressão Humidade
    00:00 +19°C° 0 mm 3 m/s 714 mmHg 10%
    01:00 +18°C° 0 mm 3 m/s 714 mmHg 10%
    02:00 +17°C° 0 mm 3 m/s 714 mmHg 10%
    03:00 +17°C° 0 mm 3 m/s 714 mmHg 11%
    04:00 +17°C° 0 mm 3 m/s 714 mmHg 11%
    05:00 +16°C° 0 mm 3 m/s 714 mmHg 11%
    06:00 +16°C° 0 mm 3 m/s 714 mmHg 11%
    07:00 +16°C° 0 mm 3 m/s 714 mmHg 11%
    08:00 +19°C° 0 mm 4 m/s 715 mmHg 9%
    09:00 +22°C° 0 mm 4 m/s 715 mmHg 8%
    10:00 +25°C° 0 mm 5 m/s 715 mmHg 6%
    11:00 +27°C° 0 mm 5 m/s 714 mmHg 6%
    12:00 +29°C° 0 mm 5 m/s 714 mmHg 5%
    13:00 +32°C° 0 mm 4 m/s 713 mmHg 5%
    14:00 +32°C° 0 mm 4 m/s 713 mmHg 5%
    15:00 +32°C° 0 mm 4 m/s 712 mmHg 5%
    16:00 +32°C° 0 mm 4 m/s 712 mmHg 5%
    17:00 +29°C° 0 mm 3 m/s 712 mmHg 6%
    18:00 +27°C° 0 mm 3 m/s 712 mmHg 7%
    19:00 +26°C° 0 mm 3 m/s 712 mmHg 7%
    20:00 +25°C° 0 mm 3 m/s 712 mmHg 8%
    21:00 +25°C° 0 mm 4 m/s 712 mmHg 8%
    22:00 +25°C° 0 mm 4 m/s 712 mmHg 9%
    23:00 +23°C° 0 mm 4 m/s 712 mmHg 10%
    Mostrar mais